Location: Christianberg
(48.9086°N, 14.0209°E)
Time: 21:40:14
(UTC+00:00)

Cosmos 2151 - Pass Details

Date: 20 June 2021
Orbit: 582 x 599 km, 82.5° (Epoch: 04 August)

Event Time Altitude Azimuth Distance (km) Brightness Sun altitude
Exits shadow 01:44:54 13° 216° (SW) 1,735 4.7 -9.4°
Maximum altitude 01:48:27 42° 285° (WNW) 843 3.6 -9.0°
Drops below altitude 10° 01:52:28 10° 357° (N) 1,914 6.4 -8.6°
Sets 01:54:46 0° 5° (N) 2,818 7.5 -8.4°
